![]() |
EMODnet Physics ERDDAP
Easier access to scientific data |
log in|
Brought to you by EMODnet Physics |
| Dataset Title: | NDBC - Collection of dew point temperature (DEWT) TimeSeries - IN SITU MultiPointTimeSeriesObservation
|
| Institution: | NDBC (Dataset ID: TS_DEWT_NDBC) |
| Information: | Summary
| License
| FGDC
| ISO 19115
| Metadata
| Background
| Subset
| Data Access Form
| Make a graph
|
| Name | Last modified | Size | Description | |
|---|---|---|---|---|
| Parent Directory | - | - | ||
| CPVM2_TS_DEWT_012016.nc | 25-Dec-2024 03:54 | 429840 | ||
| CPVM2_TS_DEWT_012017.nc | 25-Dec-2024 03:58 | 1474497 | ||
| CPVM2_TS_DEWT_012018.nc | 25-Dec-2024 04:03 | 1627252 | ||
| CPVM2_TS_DEWT_012019.nc | 25-Dec-2024 04:07 | 1626399 | ||
| CPVM2_TS_DEWT_012021.nc | 25-Dec-2024 04:16 | 1464574 | ||
| CPVM2_TS_DEWT_012022.nc | 25-Dec-2024 04:20 | 1627585 | ||
| CPVM2_TS_DEWT_012023.nc | 25-Dec-2024 04:25 | 1627778 | ||
| CPVM2_TS_DEWT_012025.nc | 07-Feb-2025 14:33 | 1627731 | ||
| CPVM2_TS_DEWT_012026.nc | 02-Feb-2026 14:34 | 1627573 | ||
| CPVM2_TS_DEWT_022016.nc | 25-Dec-2024 03:54 | 1146031 | ||
| CPVM2_TS_DEWT_022017.nc | 25-Dec-2024 03:59 | 1627722 | ||
| CPVM2_TS_DEWT_022018.nc | 25-Dec-2024 04:03 | 418795 | ||
| CPVM2_TS_DEWT_022019.nc | 25-Dec-2024 04:08 | 1626437 | ||
| CPVM2_TS_DEWT_022021.nc | 25-Dec-2024 04:16 | 1627290 | ||
| CPVM2_TS_DEWT_022022.nc | 25-Dec-2024 04:21 | 1627741 | ||
| CPVM2_TS_DEWT_022023.nc | 25-Dec-2024 04:25 | 1823763 | ||
| CPVM2_TS_DEWT_022025.nc | 01-Mar-2025 09:28 | 1965596 | ||
| CPVM2_TS_DEWT_022026.nc | 01-Mar-2026 14:39 | 1266914 | ||
| CPVM2_TS_DEWT_032016.nc | 25-Dec-2024 03:55 | 1267679 | ||
| CPVM2_TS_DEWT_032017.nc | 25-Dec-2024 03:59 | 1115571 | ||
| CPVM2_TS_DEWT_032018.nc | 25-Dec-2024 04:04 | 1265304 | ||
| CPVM2_TS_DEWT_032019.nc | 25-Dec-2024 04:08 | 1265276 | ||
| CPVM2_TS_DEWT_032021.nc | 25-Dec-2024 04:17 | 1267590 | ||
| CPVM2_TS_DEWT_032022.nc | 25-Dec-2024 04:21 | 1025770 | ||
| CPVM2_TS_DEWT_032023.nc | 25-Dec-2024 04:25 | 4759783 | ||
| CPVM2_TS_DEWT_032025.nc | 02-Apr-2025 07:40 | 1028724 | ||
| CPVM2_TS_DEWT_032026.nc | 25-Mar-2026 16:47 | 1027803 | ||
| CPVM2_TS_DEWT_042016.nc | 25-Dec-2024 03:55 | 1108949 | ||
| CPVM2_TS_DEWT_042017.nc | 25-Dec-2024 03:59 | 1029684 | ||
| CPVM2_TS_DEWT_042018.nc | 25-Dec-2024 04:04 | 1028425 | ||
| CPVM2_TS_DEWT_042019.nc | 25-Dec-2024 04:08 | 1029780 | ||
| CPVM2_TS_DEWT_042021.nc | 25-Dec-2024 04:17 | 423794 | ||
| CPVM2_TS_DEWT_042022.nc | 25-Dec-2024 04:22 | 2564772 | ||
| CPVM2_TS_DEWT_042023.nc | 25-Dec-2024 04:26 | 1266603 | ||
| CPVM2_TS_DEWT_042025.nc | 01-May-2025 05:59 | 1265477 | ||
| CPVM2_TS_DEWT_052016.nc | 25-Dec-2024 03:55 | 1117895 | ||
| CPVM2_TS_DEWT_052017.nc | 25-Dec-2024 04:00 | 994469 | ||
| CPVM2_TS_DEWT_052018.nc | 25-Dec-2024 04:05 | 1265206 | ||
| CPVM2_TS_DEWT_052019.nc | 25-Dec-2024 04:09 | 1265225 | ||
| CPVM2_TS_DEWT_052021.nc | 25-Dec-2024 04:17 | 2920068 | ||
| CPVM2_TS_DEWT_052022.nc | 25-Dec-2024 04:22 | 1116108 | ||
| CPVM2_TS_DEWT_052023.nc | 25-Dec-2024 04:26 | 1029010 | ||
| CPVM2_TS_DEWT_052025.nc | 01-Jun-2025 06:19 | 1112373 | ||
| CPVM2_TS_DEWT_062015.nc | 25-Dec-2024 03:51 | 1111754 | ||
| CPVM2_TS_DEWT_062016.nc | 25-Dec-2024 03:56 | 1113354 | ||
| CPVM2_TS_DEWT_062017.nc | 25-Dec-2024 04:00 | 1114355 | ||
| CPVM2_TS_DEWT_062018.nc | 25-Dec-2024 04:05 | 1266863 | ||
| CPVM2_TS_DEWT_062019.nc | 25-Dec-2024 04:09 | 1263496 | ||
| CPVM2_TS_DEWT_062020.nc | 25-Dec-2024 04:13 | 1267206 | ||
| CPVM2_TS_DEWT_062021.nc | 25-Dec-2024 04:18 | 1265688 | ||
| CPVM2_TS_DEWT_062022.nc | 25-Dec-2024 04:22 | 1265543 | ||
| CPVM2_TS_DEWT_062023.nc | 25-Dec-2024 04:27 | 1115567 | ||
| CPVM2_TS_DEWT_062025.nc | 17-Jun-2025 05:02 | 1110324 | ||
| CPVM2_TS_DEWT_072015.nc | 25-Dec-2024 03:52 | 1108027 | ||
| CPVM2_TS_DEWT_072016.nc | 25-Dec-2024 03:56 | 1108327 | ||
| CPVM2_TS_DEWT_072017.nc | 25-Dec-2024 04:00 | 1110996 | ||
| CPVM2_TS_DEWT_072018.nc | 25-Dec-2024 04:05 | 1110936 | ||
| CPVM2_TS_DEWT_072019.nc | 25-Dec-2024 04:10 | 1109896 | ||
| CPVM2_TS_DEWT_072020.nc | 25-Dec-2024 04:14 | 1262216 | ||
| CPVM2_TS_DEWT_072021.nc | 25-Dec-2024 04:18 | 1263908 | ||
| CPVM2_TS_DEWT_072022.nc | 25-Dec-2024 04:23 | 1115560 | ||
| CPVM2_TS_DEWT_072023.nc | 25-Dec-2024 04:27 | 1116818 | ||
| CPVM2_TS_DEWT_072025.nc | 16-Aug-2025 05:06 | 1261639 | ||
| CPVM2_TS_DEWT_082015.nc | 25-Dec-2024 03:52 | 1260246 | ||
| CPVM2_TS_DEWT_082016.nc | 25-Dec-2024 03:56 | 1263535 | ||
| CPVM2_TS_DEWT_082017.nc | 25-Dec-2024 04:01 | 1263625 | ||
| CPVM2_TS_DEWT_082018.nc | 25-Dec-2024 04:06 | 1115920 | ||
| CPVM2_TS_DEWT_082019.nc | 25-Dec-2024 04:10 | 1261812 | ||
| CPVM2_TS_DEWT_082020.nc | 25-Dec-2024 04:14 | 1259578 | ||
| CPVM2_TS_DEWT_082021.nc | 25-Dec-2024 04:19 | 1262052 | ||
| CPVM2_TS_DEWT_082022.nc | 25-Dec-2024 04:23 | 1112253 | ||
| CPVM2_TS_DEWT_082023.nc | 25-Dec-2024 04:27 | 1011580 | ||
| CPVM2_TS_DEWT_082025.nc | 01-Sep-2025 05:42 | 1111370 | ||
| CPVM2_TS_DEWT_092015.nc | 25-Dec-2024 03:52 | 1108343 | ||
| CPVM2_TS_DEWT_092016.nc | 25-Dec-2024 03:57 | 1107062 | ||
| CPVM2_TS_DEWT_092017.nc | 25-Dec-2024 04:01 | 1109422 | ||
| CPVM2_TS_DEWT_092018.nc | 25-Dec-2024 04:06 | 1267807 | ||
| CPVM2_TS_DEWT_092019.nc | 25-Dec-2024 04:10 | 1264650 | ||
| CPVM2_TS_DEWT_092020.nc | 25-Dec-2024 04:15 | 1266265 | ||
| CPVM2_TS_DEWT_092021.nc | 25-Dec-2024 04:19 | 1114590 | ||
| CPVM2_TS_DEWT_092022.nc | 25-Dec-2024 04:23 | 1264941 | ||
| CPVM2_TS_DEWT_092023.nc | 25-Dec-2024 04:28 | 1262296 | ||
| CPVM2_TS_DEWT_092025.nc | 01-Oct-2025 05:29 | 1114245 | ||
| CPVM2_TS_DEWT_102015.nc | 25-Dec-2024 03:53 | 1114473 | ||
| CPVM2_TS_DEWT_102016.nc | 25-Dec-2024 03:57 | 1033596 | ||
| CPVM2_TS_DEWT_102017.nc | 25-Dec-2024 04:02 | 1116877 | ||
| CPVM2_TS_DEWT_102018.nc | 25-Dec-2024 04:06 | 1114038 | ||
| CPVM2_TS_DEWT_102020.nc | 25-Dec-2024 04:15 | 1111768 | ||
| CPVM2_TS_DEWT_102021.nc | 25-Dec-2024 04:19 | 5432398 | ||
| CPVM2_TS_DEWT_102022.nc | 25-Dec-2024 04:24 | 639566 | ||
| CPVM2_TS_DEWT_102023.nc | 25-Dec-2024 04:28 | 1027342 | ||
| CPVM2_TS_DEWT_102024.nc | 12-Jan-2025 21:20 | 1265243 | ||
| CPVM2_TS_DEWT_102025.nc | 01-Nov-2025 05:07 | 1113603 | ||
| CPVM2_TS_DEWT_112015.nc | 25-Dec-2024 03:53 | 1268215 | ||
| CPVM2_TS_DEWT_112016.nc | 25-Dec-2024 03:57 | 1266235 | ||
| CPVM2_TS_DEWT_112017.nc | 25-Dec-2024 04:02 | 1020946 | ||
| CPVM2_TS_DEWT_112018.nc | 25-Dec-2024 04:07 | 5361174 | ||
| CPVM2_TS_DEWT_112019.nc | 25-Dec-2024 04:11 | 599251 | ||
| CPVM2_TS_DEWT_112020.nc | 25-Dec-2024 04:15 | 903019 | ||
| CPVM2_TS_DEWT_112021.nc | 25-Dec-2024 04:20 | 902690 | ||
| CPVM2_TS_DEWT_112022.nc | 25-Dec-2024 04:24 | 607674 | ||
| CPVM2_TS_DEWT_112023.nc | 25-Dec-2024 04:28 | 603502 | ||
| CPVM2_TS_DEWT_112024.nc | 17-Jan-2025 16:29 | 902036 | ||
| CPVM2_TS_DEWT_112025.nc | 02-Dec-2025 08:43 | 902687 | ||
| CPVM2_TS_DEWT_122015.nc | 25-Dec-2024 03:54 | 606103 | ||
| CPVM2_TS_DEWT_122016.nc | 25-Dec-2024 03:58 | 603864 | ||
| CPVM2_TS_DEWT_122017.nc | 25-Dec-2024 04:02 | 596686 | ||
| CPVM2_TS_DEWT_122018.nc | 25-Dec-2024 04:07 | 422663 | ||
| CPVM2_TS_DEWT_122019.nc | 25-Dec-2024 04:11 | 605898 | ||
| CPVM2_TS_DEWT_122020.nc | 25-Dec-2024 04:16 | 605973 | ||
| CPVM2_TS_DEWT_122021.nc | 25-Dec-2024 04:20 | 604751 | ||
| CPVM2_TS_DEWT_122022.nc | 25-Dec-2024 04:24 | 603500 | ||
| CPVM2_TS_DEWT_122023.nc | 25-Dec-2024 04:29 | 605881 | ||
| CPVM2_TS_DEWT_122024.nc | 22-Jan-2025 17:29 | 591059 | ||
| CPVM2_TS_DEWT_122025.nc | 30-Dec-2025 07:58 | 606851 | ||